Weather History for Cody, WY

Change the Weather History Date:

Saturday, August 3, 2013

  Actual Average Record
Temperature  
Mean Temperature 65 °F -  
Max Temperature 77 °F 82 °F 102 °F (1934)
Min Temperature 53 °F 53 °F 40 °F (1928)
Growing Degree Days 15 (Base 50)    
Moisture  
Dew Point 54 °F    
Average Humidity 68    
Maximum Humidity 94    
Minimum Humidity 50    
Precipitation  
Precipitation 0.00 in - - ()
Sea Level Pressure  
Sea Level Pressure 30.13 in    
Wind  
Wind Speed 6 mph (NNE)    
Max Wind Speed 13 mph    
Max Gust Speed 18 mph    
Visibility 10 miles    
Events      
Averages and records for this station are not official NWS values.
T = Trace of Precipitation, MM = Missing Value Source: NWS Daily Summary

Daily Weather History Graph

Daily Weather History Graph

Search for Another Location

Airport:

Trip Planner

Search our weather history database for the weather conditions in past years. The results will help you decide how hot, cold, wet, or windy it might be!

Date:

Astronomy

Aug. 03, 2013 Rise Set
Actual Time 6:05 AM MDT 8:38 PM MDT
Civil Twilight 5:32 AM MDT 9:11 PM MDT
Nautical Twilight 4:50 AM MDT 9:52 PM MDT
Astronomical Twilight 4:03 AM MDT 10:39 PM MDT
Moon 3:15 AM MDT (8/3) 6:24 PM MDT (8/3)
Length of Visible Light 15h 38m
Length of Day
14h 32m
Waning Crescent, 9% of the Moon is Illuminated
Aug 3
Waning Crescent
Aug 6
New
Aug 14
First Quarter
Aug 20
Full
Aug 28
Last Quarter

Hourly Weather History & Observations

Time (MDT) Temp. Dew Point Humidity Pressure Visibility Wind Dir Wind Speed Gust Speed Precip Events Conditions
12:15 AM 60.8 °F 50.0 °F 68% 30.12 in 10.0 mi North 6.9 mph - N/A   Clear
12:35 AM 59.0 °F 48.2 °F 67% 30.12 in 10.0 mi NE 4.6 mph - N/A   Clear
12:55 AM 57.2 °F 51.8 °F 82% 30.14 in 10.0 mi NNE 10.4 mph - N/A   Clear
1:35 AM 59.0 °F 53.6 °F 82% 30.14 in 10.0 mi North 8.1 mph 17.3 mph N/A   Clear
2:35 AM 57.2 °F 51.8 °F 82% 30.14 in 10.0 mi NNW 6.9 mph - N/A   Clear
2:55 AM 57.2 °F 51.8 °F 82% 30.14 in 10.0 mi NW 4.6 mph - N/A   Clear
3:15 AM 55.4 °F 51.8 °F 88% 30.14 in 10.0 mi North 9.2 mph - N/A   Clear
3:35 AM 57.2 °F 51.8 °F 82% 30.13 in 10.0 mi Calm Calm - N/A   Clear
3:55 AM 57.2 °F 53.6 °F 88% 30.13 in 10.0 mi Calm Calm - N/A   Clear
4:35 AM 55.4 °F 51.8 °F 88% 30.14 in 10.0 mi Calm Calm - N/A   Clear
5:15 AM 55.4 °F 51.8 °F 88% 30.15 in 10.0 mi Calm Calm - N/A   Clear
5:35 AM 53.6 °F 51.8 °F 94% 30.16 in 10.0 mi SW 3.5 mph - N/A   Clear
5:55 AM 53.6 °F 50.0 °F 88% 30.16 in 10.0 mi Calm Calm - N/A   Clear
6:15 AM 53.6 °F 51.8 °F 94% 30.16 in 10.0 mi SSE 4.6 mph - N/A   Clear
6:35 AM 53.6 °F 51.8 °F 94% 30.17 in 10.0 mi South 3.5 mph - N/A   Clear
6:55 AM 53.6 °F 51.8 °F 94% 30.17 in 10.0 mi SSW 4.6 mph - N/A   Clear
7:15 AM 55.4 °F 51.8 °F 88% 30.17 in 10.0 mi SSE 3.5 mph - N/A   Clear
7:35 AM 57.2 °F 51.8 °F 82% 30.18 in 10.0 mi Calm Calm - N/A   Clear
7:55 AM 57.2 °F 51.8 °F 82% 30.18 in 10.0 mi Calm Calm - N/A   Clear
8:15 AM 59.0 °F 51.8 °F 77% 30.18 in 10.0 mi SSE 3.5 mph - N/A   Clear
8:35 AM 60.8 °F 51.8 °F 72% 30.19 in 10.0 mi East 3.5 mph - N/A   Clear
8:55 AM 60.8 °F 53.6 °F 77% 30.19 in 10.0 mi NE 5.8 mph - N/A   Clear
9:15 AM - - N/A% 30.18 in 10.0 mi North 3.5 mph - N/A   Partly Cloudy
9:35 AM 62.6 °F 55.4 °F 77% 30.19 in 10.0 mi NNE 5.8 mph - N/A   Scattered Clouds
9:55 AM 62.6 °F 55.4 °F 77% 30.19 in 10.0 mi North 3.5 mph - N/A   Mostly Cloudy
10:15 AM - - N/A% 30.17 in 10.0 mi ENE 9.2 mph - N/A   Scattered Clouds
10:35 AM 64.4 °F 55.4 °F 73% 30.18 in 10.0 mi NE 9.2 mph - N/A   Partly Cloudy
10:55 AM 66.2 °F 55.4 °F 68% 30.18 in 10.0 mi NE 5.8 mph - N/A   Partly Cloudy
11:15 AM 66.2 °F 55.4 °F 68% 30.17 in 10.0 mi North 3.5 mph - N/A   Clear
11:35 AM - - N/A% 30.16 in 10.0 mi NE 5.8 mph - N/A   Clear
11:55 AM 68.0 °F 55.4 °F 64% 30.15 in 10.0 mi North 3.5 mph - N/A   Clear
12:15 PM 69.8 °F 55.4 °F 60% 30.15 in 10.0 mi North 5.8 mph - N/A   Clear
12:35 PM 69.8 °F 53.6 °F 56% 30.15 in 10.0 mi NNE 5.8 mph - N/A   Clear
12:55 PM 71.6 °F 55.4 °F 57% 30.13 in 10.0 mi NNE 6.9 mph - N/A   Clear
1:15 PM 73.4 °F 53.6 °F 50% 30.13 in 10.0 mi NE 4.6 mph - N/A   Clear
1:55 PM 75.2 °F 55.4 °F 50% 30.11 in 10.0 mi NE 5.8 mph - N/A   Clear
2:35 PM 75.2 °F 55.4 °F 50% 30.10 in 10.0 mi NNE 6.9 mph - N/A   Clear
2:55 PM 75.2 °F 57.2 °F 53% 30.10 in 10.0 mi NE 6.9 mph - N/A   Clear
3:15 PM 75.2 °F 57.2 °F 53% 30.09 in 10.0 mi North 9.2 mph - N/A   Clear
3:35 PM 75.2 °F 59.0 °F 57% 30.09 in 10.0 mi NNE 11.5 mph - N/A   Clear
3:55 PM 75.2 °F 57.2 °F 53% 30.08 in 10.0 mi NE 11.5 mph - N/A   Clear
4:15 PM 75.2 °F 59.0 °F 57% 30.08 in 10.0 mi NNE 10.4 mph - N/A   Clear
4:35 PM 75.2 °F 57.2 °F 53% 30.08 in 10.0 mi NE 11.5 mph - N/A   Clear
4:55 PM 75.2 °F 59.0 °F 57% 30.07 in 10.0 mi North 9.2 mph - N/A   Clear
5:15 PM 77.0 °F 57.2 °F 50% 30.08 in 10.0 mi NNE 10.4 mph - N/A   Clear
5:35 PM 75.2 °F 57.2 °F 53% 30.07 in 10.0 mi NNE 9.2 mph - N/A   Clear
5:55 PM 77.0 °F 57.2 °F 50% 30.07 in 10.0 mi North 12.7 mph - N/A   Clear
6:15 PM 75.2 °F 55.4 °F 50% 30.07 in 10.0 mi NNE 11.5 mph - N/A   Clear
6:55 PM 73.4 °F 55.4 °F 53% 30.07 in 10.0 mi North 12.7 mph - N/A   Clear
7:15 PM 73.4 °F 55.4 °F 53% 30.08 in 10.0 mi North 11.5 mph 18.4 mph N/A   Clear
7:35 PM 71.6 °F 55.4 °F 57% 30.08 in 10.0 mi North 11.5 mph 18.4 mph N/A   Clear
7:55 PM 71.6 °F 55.4 °F 57% 30.09 in 10.0 mi North 12.7 mph - N/A   Clear
8:15 PM 69.8 °F 55.4 °F 60% 30.09 in 10.0 mi North 11.5 mph - N/A   Clear
8:35 PM 68.0 °F 53.6 °F 60% 30.09 in 10.0 mi North 9.2 mph - N/A   Clear
8:55 PM 66.2 °F 53.6 °F 64% 30.09 in 10.0 mi North 9.2 mph - N/A   Clear
9:15 PM 66.2 °F 53.6 °F 64% 30.10 in 10.0 mi North 8.1 mph - N/A   Clear
9:35 PM 66.2 °F 51.8 °F 60% 30.11 in 10.0 mi NNW 9.2 mph - N/A   Clear
9:55 PM 66.2 °F 51.8 °F 60% 30.12 in 10.0 mi NNW 6.9 mph - N/A   Clear
10:15 PM 66.2 °F 51.8 °F 60% 30.12 in 10.0 mi NNW 4.6 mph - N/A   Clear
10:35 PM 64.4 °F 51.8 °F 64% 30.13 in 10.0 mi NW 8.1 mph - N/A   Clear
10:55 PM 64.4 °F 51.8 °F 64% 30.13 in 10.0 mi NW 9.2 mph - N/A   Clear
11:15 PM 66.2 °F 50.0 °F 56% 30.13 in 10.0 mi NNW 9.2 mph - N/A   Clear
11:35 PM 64.4 °F 51.8 °F 64% 30.14 in 10.0 mi NW 9.2 mph - N/A   Clear
11:55 PM 64.4 °F 53.6 °F 68% 30.15 in 10.0 mi NW 8.1 mph - N/A   Clear